STARLINK-36984

operational
NORAD ID: 70105 Constellation: starlink
LEOCIRCULAR

Über STARLINK-36984

Beschreibung wird geladen...

Live-Position

3D-Globus wird geladen...

Nächste Überflüge

Höhenverlauf

Altitude vs Time

uPlot chart will show altitude changes over time

Zweizeiliger Elementsatz

1 70105C 26050B 26073.73243056 .00564930 00000+0 74441-3 0 736
2 70105 53.1639 257.6157 0011539 268.0765 224.8588 16.05385850 17
Epoch: 14. März 2026 • Age: 47 hours